Location: *
(41.7492°S, 135.4150°W)
Time: 23:17:49
(UTC+00:00)

METEOR M2 - Pass Details

Date: 06 July 2022
Orbit: 818 x 827 km, 98.4° (Epoch: 17 August)

Event Time Altitude Azimuth Distance (km) Brightness Sun altitude
Exits shadow 04:32:01 57° 224° (SW) 978 ? -30.5°
Maximum altitude 04:32:35 60° 252° (WSW) 948 ? -30.6°
Drops below altitude 10° 04:37:52 10° 331° (NNW) 2,425 ? -31.6°
Sets 04:40:13 0° 334° (NNW) 3,351 ? -32.1°
